Location: Bachas
(43.2439°N, 0.9375°E)
Time: 02:05:32
(UTC+00:00)

CZ-4C R/B - Pass Details

Date: 18 February 2020
Orbit: 641 x 1361 km, 63.4° (Epoch: 03 April)

Event Time Altitude Azimuth Distance (km) Brightness Sun altitude
Exits shadow 05:47:21 - 313° (NW) 2,607 4.3 -12.2°
Reaches altitude 10° 05:47:52 10° 317° (NW) 2,532 4.2 -12.1°
Maximum altitude 05:50:47 14° 347° (NNW) 2,388 4.4 -11.6°
Drops below altitude 10° 05:53:57 10° 17° (NNE) 2,785 5.0 -11.0°
Sets 05:58:26 0° 41° (NE) 3,920 6.2 -10.2°
